Satellite-Ground Cal/Val Site Overpasses Predictions

Prediction of Satellite NPP Overpassing Cal/Val Site: Antarctic Dome C

Ground Cal/Val Site Location: Latitude: -75.10, Longitude: 123.35; Satellite-Ground Site NADIR distance within 100 km.

Table of predicted overpasses for the next 14.0 days since TLE Epoch: 11/8/2013
Interval Starting Time Ending Time Minimum Distance Time Minimum Distance (km)
1 11/08/2013 14:43:40 11/08/2013 14:44:06 11/08/2013 14:43:53 46.82
2 11/09/2013 07:45:21 11/09/2013 07:45:43 11/09/2013 07:45:32 66.83
3 11/10/2013 07:26:29 11/10/2013 07:26:56 11/10/2013 07:26:42 41.19
4 11/12/2013 15:08:59 11/12/2013 15:09:00 11/12/2013 15:08:59 99.69
5 11/13/2013 14:49:55 11/13/2013 14:50:24 11/13/2013 14:50:10 11.61
6 11/15/2013 07:32:45 11/15/2013 07:33:14 11/15/2013 07:32:59 5.48
7 11/18/2013 14:56:11 11/18/2013 14:56:40 11/18/2013 14:56:26 24.43
8 11/19/2013 14:37:29 11/19/2013 14:37:45 11/19/2013 14:37:37 82.71
9 11/20/2013 07:39:01 11/20/2013 07:39:29 11/20/2013 07:39:15 30.61
